This is the latest recevied weather packets stored in our database for station/object K3JSE-4. If no packets are shown the sender has not sent any weather packets the latest 10 day(s).
| Time | Temp. | Humidity | Pressure | Rain* | Wind** | Luminosity | Snow |
|---|---|---|---|---|---|---|---|
| 1777829443 | 12.22° C | 40% | 1014.8 hPa | 0 mm | - | - | - |
| 1777829143 | 12.78° C | 35% | 1014.7 hPa | 0 mm | - | - | - |
| 1777828843 | 12.78° C | 44% | 1014.8 hPa | 0 mm | - | - | - |
| 1777828543 | 12.22° C | 39% | 1015 hPa | 0 mm | - | - | - |
| 1777828243 | 12.78° C | 36% | 1015 hPa | 0 mm | - | - | - |
| 1777827943 | 11.67° C | 36% | 1015 hPa | 0 mm | - | - | - |
| 1777827643 | 12.22° C | 36% | 1015 hPa | 0 mm | - | - | - |
| 1777827343 | 12.22° C | 37% | 1015 hPa | 0 mm | - | - | - |
| 1777827043 | 12.22° C | 38% | 1015.1 hPa | 0 mm | - | - | - |
| 1777826743 | 12.22° C | 37% | 1015.2 hPa | 0 mm | - | - | - |
| 1777826443 | 11.67° C | 40% | 1015.1 hPa | 0 mm | - | - | - |
| 1777826143 | 11.67° C | 40% | 1015 hPa | 0 mm | - | - | - |
| 1777825843 | 11.67° C | 40% | 1015.2 hPa | 0 mm | - | - | - |
| 1777825543 | 11.67° C | 38% | 1015.1 hPa | 0 mm | - | - | - |
| 1777825243 | 11.11° C | 41% | 1015.2 hPa | 0 mm | - | - | - |
| 1777824943 | 11.11° C | 38% | 1015.2 hPa | 0 mm | - | - | - |
| 1777824643 | 11.11° C | 41% | 1015.3 hPa | 0 mm | - | - | - |
| 1777824343 | 11.11° C | 48% | 1015.3 hPa | 0 mm | - | - | - |
| 1777824043 | 10.56° C | 43% | 1015.3 hPa | 0 mm | - | - | - |
| 1777823743 | 10.56° C | 43% | 1015.3 hPa | 0 mm | - | - | - |
| 1777823443 | 10° C | 41% | 1015.4 hPa | 0 mm | - | - | - |
| 1777823143 | 10° C | 44% | 1015.4 hPa | 0 mm | - | - | - |
| 1777822843 | 10.56° C | 46% | 1015.3 hPa | 0 mm | - | - | - |
| 1777822543 | 9.44° C | 46% | 1015.6 hPa | 0 mm | - | - | - |
| 1777822243 | 8.89° C | 43% | 1015.6 hPa | 0 mm | - | - | - |
* Rain latest hour (hover to see other rain measurements)
** Current wind speed in m/s (hover to see current wind gust speed)